Regional Weather Roundup
Issued by NWS

Home | Current Version | Previous Version | Graphics & Text | Print | Product List | Glossary On
Versions: 1 2 3 4 5 6 7 8 9 10 11 12 13 14 15 16 17 18 19 20 21 22 23 24 25 26 27 28 29 30 31 32 33 34 35 36 37 38 39 40 41 42 43 44 45 46 47 48 49 50
545
ASUS44 KMEG 201710
RWRTN
TENNESSEE HOURLY STATE WEATHER ROUNDUP
NATIONAL WEATHER SERVICE MEMPHIS TN
1100 AM CST MON NOV 20 2017

TNZ002-004-019-021-049-052-054-088>092-201800-
WEST TENNESSEE

CITY           SKY/WX    TMP DP  RH WIND       PRES   REMARKS
MEMPHIS INTL   PTSUNNY   48  26  42 VRB6      30.24F
NWS MEMPHIS      N/A     49 N/A N/A MISG        N/A
JACKSON        CLOUDY    47  29  49 S7        30.24F
DYERSBURG      CLOUDY    46  30  53 SE12      30.24F
COVINGTON      SUNNY     46  28  49 SE8       30.23F
UNION CITY     SUNNY     48  28  46 S8        30.22F
BOLIVAR        SUNNY     48  27  43 VRB6      30.23F
PARIS          SUNNY     46  27  46 VRB5      30.21F
HUNTINGDON     SUNNY     46  28  49 SE7       30.22F
LEXINGTON      SUNNY     46  28  49 VRB3      30.24F
SELMER         SUNNY     46  28  49 S3        30.24F
SAVANNAH       SUNNY     48  27  43 S5        30.24F
$$

TNZ008-025-027-028-033-062-065-066-201800-
NORTH MIDDLE TENNESSEE

CITY           SKY/WX    TMP DP  RH WIND       PRES   REMARKS
NASHVILLE      PTSUNNY   45  23  42 SE3       30.25F
PORTLAND       SUNNY     45  23  42 VRB5      30.24F
CLARKSVILLE    SUNNY     44  23  43 S6        30.24F
SMYRNA         SUNNY     44  26  49 CALM      30.27F
COOKEVILLE     SUNNY     46  27  46 CALM      30.24F
GALLATIN       SUNNY     43  27  52 CALM      30.28F
CROSSVILLE     SUNNY     46  24  42 VRB3      30.22F
$$

TNZ061-075-076-078-094-096-097-201800-
SOUTH MIDDLE TENNESSEE

CITY           SKY/WX    TMP DP  RH WIND       PRES   REMARKS
FAYETTEVILLE   SUNNY     46  27  46 CALM      30.23F
TULLAHOMA      SUNNY     46  18  31 CALM      30.22F
WINCHESTER     SUNNY     46  25  42 CALM      30.23F
MCMINNVILLE    SUNNY     46  25  42 CALM      30.24F
COLUMBIA       SUNNY     45  27  49 CALM      30.22F
SHELBYVILLE    SUNNY     46  23  39 CALM      30.24F
$$

TNZ017-018-042-046-047-201800-
NORTHEAST TENNESSEE

CITY           SKY/WX    TMP DP  RH WIND       PRES   REMARKS
TRI CITIES     SUNNY     43  28  55 CALM      30.26F
ELIZABETHTON   SUNNY     46  21  36 S3        30.25F
$$

TNZ012-013-036-069-073-074-201800-
CENTRAL EAST TENNESSEE

CITY           SKY/WX    TMP DP  RH WIND       PRES   REMARKS
KNOXVILLE      MOSUNNY   44  33  65 VRB6      30.26F
OAK RIDGE      SUNNY     44  29  55 VRB3      30.28F
DOWNTOWN KNOXV SUNNY     45  30  57 CALM      30.28F
GATLINBURG     SUNNY     43  30  61 VRB3      30.27F
MORRISTOWN     SUNNY     43  27  52 CALM      30.26F
JACKSBORO      SUNNY     43  28  56 CALM      30.30F
$$

TNZ083-085-099-201800-
SOUTHEAST TENNESSEE

CITY           SKY/WX    TMP DP  RH WIND       PRES   REMARKS
CHATTANOOGA    PTSUNNY   47  29  49 VRB3      30.26F
$$

SKY/WX REPORTED AS FAIR MEANS FEW OR NO CLOUDS BELOW
12 THOUSAND FEET.





USA.gov is the U.S. government's official web portal to all federal, state and local government web resources and services.